| time (UTC) | temp C | wind direction | speed KPH | gust KPH | rain 1hr cm | rain 24hr cm | rain mn cm | humidity % | barometer mb |
| 20260509100712 | 4 | 288 | 0.0 | 0.0 | 0.00 | 0.00 | 0.00 | 95 | 1021.4 |
| 20260509095205 | 5 | 288 | 0.0 | 0.0 | 0.00 | 0.00 | 0.00 | 95 | 1021.6 |
| 20260509093659 | 5 | 288 | 0.0 | 0.0 | 0.00 | 0.00 | 0.00 | 95 | 1021.6 |
| 20260509092143 | 5 | 288 | 0.0 | 0.0 | 0.00 | 0.00 | 0.00 | 95 | 1021.4 |
| 20260509090630 | 5 | 288 | 0.0 | 0.0 | 0.00 | 0.00 | 0.00 | 95 | 1021.5 |
| 20260509085832 | 5 | 288 | 0.0 | 0.0 | 0.00 | 0.00 | 0.00 | 95 | 1021.7 |
| 20260509083618 | 5 | 288 | 0.0 | 0.0 | 0.00 | 0.00 | 0.00 | 95 | 1021.9 |
| 20260509083502 | 5 | 288 | 0.0 | 0.0 | 0.00 | 0.00 | 0.00 | 95 | 1022.0 |
| 20260509081301 | 6 | 288 | 0.0 | 0.0 | 0.00 | 0.00 | 0.00 | 95 | 1022.1 |
| 20260509075106 | 6 | 288 | 0.0 | 0.0 | 0.00 | 0.00 | 0.00 | 94 | 1022.1 |
| 20260509074254 | 6 | 288 | 0.0 | 0.0 | 0.00 | 0.00 | 0.00 | 94 | 1022.1 |
| 20260509072056 | 6 | 288 | 0.0 | 0.0 | 0.00 | 0.00 | 0.00 | 95 | 1022.1 |
| 20260509070547 | 6 | 288 | 0.0 | 0.0 | 0.00 | 0.00 | 0.00 | 94 | 1022.1 |
| 20260509065740 | 7 | 288 | 0.0 | 0.0 | 0.00 | 0.00 | 0.00 | 94 | 1022.1 |
| 20260509063541 | 7 | 288 | 0.0 | 0.0 | 0.00 | 0.00 | 0.00 | 93 | 1022.4 |
| 20260509062039 | 7 | 288 | 0.0 | 0.0 | 0.00 | 0.00 | 0.00 | 93 | 1022.5 |
| 20260509060532 | 7 | 288 | 0.0 | 0.0 | 0.00 | 0.00 | 0.00 | 93 | 1022.6 |
| 20260509060443 | 8 | 288 | 0.0 | 0.0 | 0.00 | 0.00 | 0.00 | 93 | 1022.6 |
| 20260509055027 | 8 | 288 | 0.0 | 0.0 | 0.00 | 0.00 | 0.00 | 93 | 1022.6 |
| 20260509053515 | 8 | 288 | 0.0 | 0.0 | 0.00 | 0.00 | 0.00 | 92 | 1022.6 |
| 20260509051959 | 8 | 288 | 0.0 | 0.0 | 0.00 | 0.00 | 0.00 | 93 | 1022.6 |
| 20260509050457 | 8 | 288 | 0.0 | 0.0 | 0.00 | 0.00 | 0.00 | 90 | 1022.6 |
| 20260509044943 | 8 | 288 | 0.0 | 0.0 | 0.00 | 0.00 | 0.00 | 90 | 1022.5 |
| 20260509043437 | 9 | 288 | 0.0 | 0.0 | 0.00 | 0.00 | 0.00 | 89 | 1022.5 |
| 20260509041938 | 10 | 288 | 0.0 | 0.0 | 0.00 | 0.00 | 0.00 | 88 | 1022.4 |
| 20260509040436 | 10 | 288 | 0.0 | 0.0 | 0.00 | 0.00 | 0.00 | 87 | 1022.2 |
| 20260509034935 | 11 | 288 | 0.0 | 0.0 | 0.00 | 0.00 | 0.00 | 85 | 1022.1 |
| 20260509033435 | 11 | 288 | 0.0 | 1.6 | 0.00 | 0.00 | 0.00 | 84 | 1022.0 |
| 20260509032644 | 12 | 290 | 0.0 | 3.2 | 0.00 | 0.00 | 0.00 | 81 | 1022.1 |
| 20260509024932 | 13 | 359 | 0.0 | 8.0 | 0.00 | 0.00 | 0.00 | 78 | 1021.9 |
| 20260509023431 | 14 | 274 | 1.6 | 6.4 | 0.00 | 0.00 | 0.00 | 75 | 1021.9 |
| 20260509021928 | 15 | 253 | 0.0 | 6.4 | 0.00 | 0.00 | 0.00 | 73 | 1021.7 |
| 20260509020427 | 15 | 130 | 1.6 | 4.8 | 0.00 | 0.00 | 0.00 | 71 | 1021.6 |
| 20260509014927 | 16 | 245 | 0.0 | 4.8 | 0.00 | 0.00 | 0.00 | 71 | 1021.5 |
| 20260509013425 | 16 | 309 | 0.0 | 4.8 | 0.00 | 0.00 | 0.00 | 69 | 1021.5 |
| 20260509011922 | 16 | 102 | 1.6 | 8.0 | 0.00 | 0.00 | 0.00 | 67 | 1021.6 |
| 20260509010420 | 16 | 349 | 3.2 | 8.0 | 0.00 | 0.00 | 0.00 | 66 | 1021.7 |
| 20260509004920 | 16 | 279 | 1.6 | 14.5 | 0.00 | 0.00 | 0.00 | 68 | 1021.9 |
| 20260509003418 | 16 | 46 | 4.8 | 14.5 | 0.00 | 0.00 | 0.00 | 68 | 1022.1 |
| 20260509001917 | 16 | 156 | 4.8 | 14.5 | 0.00 | 0.00 | 0.00 | 67 | 1022.1 |
| 20260509000414 | 16 | 257 | 3.2 | 9.7 | 0.00 | 0.00 | 0.00 | 66 | 1022.3 |
| 20260508234913 | 16 | 278 | 3.2 | 8.0 | 0.00 | 0.00 | 0.00 | 65 | 1022.3 |
| 20260508233410 | 16 | 41 | 3.2 | 9.7 | 0.00 | 0.00 | 0.00 | 66 | 1022.3 |
| 20260508231909 | 16 | 231 | 4.8 | 11.3 | 0.00 | 0.00 | 0.00 | 65 | 1022.3 |
| 20260508231122 | 16 | 324 | 4.8 | 9.7 | 0.00 | 0.00 | 0.00 | 63 | 1022.3 |
| 20260508225600 | 17 | 8 | 3.2 | 12.9 | 0.00 | 0.00 | 0.00 | 63 | 1022.3 |
| 20260508223402 | 17 | 316 | 4.8 | 14.5 | 0.00 | 0.00 | 0.00 | 62 | 1022.1 |
| 20260508221900 | 17 | 250 | 3.2 | 16.1 | 0.00 | 0.00 | 0.00 | 63 | 1022.0 |
| 20260508220358 | 17 | 87 | 3.2 | 12.9 | 0.00 | 0.00 | 0.00 | 62 | 1022.1 |
| 20260508214856 | 17 | 316 | 3.2 | 11.3 | 0.00 | 0.00 | 0.00 | 62 | 1022.1 |
| 20260508213353 | 17 | 8 | 4.8 | 14.5 | 0.00 | 0.00 | 0.00 | 62 | 1022.1 |
| 20260508212550 | 17 | 219 | 3.2 | 14.5 | 0.00 | 0.00 | 0.00 | 62 | 1022.3 |
| 20260508210348 | 17 | 335 | 3.2 | 14.5 | 0.00 | 0.00 | 0.00 | 61 | 1022.3 |
| 20260508204846 | 18 | 345 | 4.8 | 14.5 | 0.00 | 0.00 | 0.00 | 59 | 1022.0 |
| 20260508203342 | 18 | 262 | 3.2 | 9.7 | 0.00 | 0.00 | 0.00 | 64 | 1021.9 |
| 20260508201834 | 17 | 343 | 1.6 | 6.4 | 0.00 | 0.00 | 0.00 | 60 | 1021.8 |
| 20260508200331 | 17 | 18 | 1.6 | 6.4 | 0.00 | 0.00 | 0.00 | 65 | 1021.8 |
| 20260508194831 | 16 | 258 | 3.2 | 9.7 | 0.00 | 0.00 | 0.00 | 67 | 1022.1 |
| 20260508193328 | 16 | 266 | 3.2 | 8.0 | 0.00 | 0.00 | 0.00 | 63 | 1022.2 |
| 20260508192529 | 15 | 13 | 3.2 | 6.4 | 0.00 | 0.00 | 0.00 | 64 | 1022.2 |
| 20260508190324 | 15 | 248 | 0.0 | 6.4 | 0.00 | 0.00 | 0.00 | 66 | 1022.3 |
| 20260508184822 | 13 | 260 | 0.0 | 9.7 | 0.00 | 0.00 | 0.00 | 70 | 1022.5 |
| 20260508183314 | 13 | 356 | 0.0 | 4.8 | 0.00 | 0.00 | 0.00 | 72 | 1022.5 |
| 20260508181806 | 13 | 262 | 3.2 | 6.4 | 0.00 | 0.00 | 0.00 | 71 | 1022.5 |
| 20260508180305 | 12 | 236 | 0.0 | 6.4 | 0.00 | 0.00 | 0.00 | 73 | 1022.5 |
| 20260508174803 | 12 | 241 | 0.0 | 4.8 | 0.00 | 0.00 | 0.00 | 76 | 1022.7 |
| 20260508173301 | 12 | 248 | 1.6 | 4.8 | 0.00 | 0.00 | 0.00 | 74 | 1022.6 |
| 20260508172501 | 12 | 261 | 1.6 | 6.4 | 0.00 | 0.00 | 0.00 | 75 | 1022.5 |
| 20260508170259 | 12 | 264 | 0.0 | 6.4 | 0.00 | 0.00 | 0.00 | 76 | 1022.4 |
| 20260508164759 | 12 | 8 | 0.0 | 0.0 | 0.00 | 0.00 | 0.00 | 75 | 1022.3 |
| 20260508163251 | 11 | 8 | 0.0 | 3.2 | 0.00 | 0.00 | 0.00 | 80 | 1022.0 |
| 20260508161750 | 11 | 349 | 1.6 | 3.2 | 0.00 | 0.00 | 0.00 | 76 | 1021.8 |
| 20260508160241 | 11 | 314 | 0.0 | 6.4 | 0.00 | 0.00 | 0.00 | 79 | 1021.8 |
| 20260508154739 | 11 | 255 | 0.0 | 3.2 | 0.00 | 0.00 | 0.00 | 81 | 1021.8 |
| 20260508153230 | 11 | 253 | 0.0 | 0.0 | 0.00 | 0.00 | 0.00 | 85 | 1021.9 |
| 20260508151734 | 10 | 252 | 0.0 | 4.8 | 0.00 | 0.00 | 0.00 | 87 | 1021.6 |
| 20260508150228 | 10 | 248 | 0.0 | 0.0 | 0.00 | 0.00 | 0.00 | 87 | 1021.2 |
| 20260508145421 | 10 | 248 | 0.0 | 0.0 | 0.00 | 0.00 | 0.00 | 91 | 1020.8 |
| 20260508143215 | 9 | 248 | 0.0 | 0.0 | 0.00 | 0.00 | 0.00 | 92 | 1021.1 |
| 20260508141714 | 9 | 248 | 0.0 | 0.0 | 0.00 | 0.00 | 0.00 | 93 | 1020.8 |
| 20260508140213 | 8 | 248 | 0.0 | 0.0 | 0.00 | 0.00 | 0.00 | 94 | 1020.9 |
| 20260508134711 | 8 | 248 | 0.0 | 0.0 | 0.00 | 0.00 | 0.00 | 93 | 1020.9 |
| 20260508133922 | 8 | 248 | 0.0 | 0.0 | 0.00 | 0.00 | 0.00 | 94 | 1020.9 |
| 20260508131701 | 8 | 248 | 0.0 | 0.0 | 0.00 | 0.00 | 0.00 | 94 | 1020.9 |
| 20260508130159 | 8 | 248 | 0.0 | 0.0 | 0.00 | 0.00 | 0.00 | 94 | 1020.8 |
| 20260508124650 | 8 | 248 | 0.0 | 0.0 | 0.00 | 0.00 | 0.00 | 94 | 1021.0 |
| 20260508123843 | 8 | 248 | 0.0 | 0.0 | 0.00 | 0.00 | 0.00 | 94 | 1020.9 |
| 20260508121640 | 8 | 248 | 0.0 | 0.0 | 0.00 | 0.00 | 0.00 | 94 | 1020.7 |
| 20260508120137 | 8 | 248 | 0.0 | 0.0 | 0.00 | 0.00 | 0.00 | 94 | 1020.7 |
| 20260508114630 | 8 | 248 | 0.0 | 0.0 | 0.00 | 0.00 | 0.00 | 94 | 1020.4 |
| 20260508113128 | 8 | 248 | 0.0 | 0.0 | 0.00 | 0.00 | 0.00 | 94 | 1020.4 |
| 20260508111625 | 8 | 248 | 0.0 | 0.0 | 0.00 | 0.00 | 0.00 | 94 | 1020.4 |
| 20260508110123 | 7 | 248 | 0.0 | 0.0 | 0.00 | 0.00 | 0.00 | 94 | 1020.1 |
| 20260508105321 | 7 | 248 | 0.0 | 0.0 | 0.00 | 0.00 | 0.00 | 94 | 1020.3 |
| 20260508103113 | 7 | 248 | 0.0 | 0.0 | 0.00 | 0.00 | 0.00 | 94 | 1020.3 |